Temperature
16 14 15 15 15 13 14 16 16 17 17 17 16 15 13 11 10 9 8 8 8 8 8 7 7 7 6 5 5 5 4 4 4 4 3 3 3 3 3 3 2 2 2 1
14 12 13 13 14 14 14 15 15 16 16 16 14 12 11 10 9 8 8 7 8 7 7 7 6 6 5 5 4 4 4 4 3 3 3 3 2 2 2 2 1 1 1 0
15 12 12 13 15 14 14 14 14 15 16 13 11 11 10 9 8 8 7 7 7 7 6 6 5 5 4 4 4 4 4 3 3 2 2 2 2 1 1 0 0 -0 -0 -1
13 12 12 16 13 13 14 14 13 13 12 11 11 9 8 8 8 7 7 7 6 6 5 5 5 4 4 4 3 3 3 3 2 2 1 1 1 0 -0 -1 -1 -1 -2 -2
12 13 14 14 12 11 12 13 12 11 11 9 8 8 8 7 7 7 6 6 6 5 5 4 4 4 3 3 3 2 2 2 1 1 0 0 -0 -1 -1 -1 -2 -2 -2 -3
11 11 12 15 11 10 12 12 11 10 10 8 8 10 10 6 6 6 6 5 5 5 4 4 3 3 3 2 2 2 1 1 1 0 -0 -1 -1 -1 -2 -2 -3 -3 -3 -4
11 11 13 13 9 10 12 13 9 9 8 8 9 9 7 6 6 5 5 5 4 4 4 3 3 3 2 2 1 1 1 0 0 -0 -1 -1 -1 -2 -2 -3 -3 -4 -4 -5
11 11 12 10 9 11 12 8 8 8 8 7 7 7 6 6 5 5 4 4 4 4 3 3 3 2 2 1 1 1 0 -0 -0 -1 -1 -2 -2 -2 -3 -4 -4 -5 -5 -5
11 12 10 8 9 9 8 8 7 7 7 7 6 6 5 5 4 4 4 3 3 3 3 3 2 1 1 1 0 0 -0 -0 -1 -1 -2 -2 -3 -3 -4 -5 -5 -6 -6 -6
9 9 8 7 7 8 8 7 8 7 7 6 6 5 4 4 4 4 3 3 3 2 2 2 2 1 1 1 0 -0 -1 -1 -2 -2 -2 -3 -4 -4 -5 -6 -6 -6 -6 -6
9 8 7 6 6 7 7 7 7 6 6 5 5 4 4 4 3 3 3 3 2 2 2 1 1 1 1 0 -0 -1 -1 -2 -2 -3 -3 -4 -4 -5 -6 -6 -7 -7 -7 -6
10 9 8 7 6 6 6 6 6 5 5 4 4 4 3 3 3 3 2 2 2 1 1 1 1 1 0 -0 -1 -2 -2 -2 -3 -4 -4 -5 -5 -6 -6 -6 -6 -7 -7 -7
7 6 6 6 6 6 6 5 5 4 4 4 3 3 3 3 2 2 2 2 1 1 1 0 0 -0 -0 -1 -2 -2 -3 -3 -4 -4 -5 -5 -6 -6 -7 -6 -7 -7 -7 -7
5 6 4 5 5 5 5 4 4 3 3 3 3 2 2 2 2 2 2 1 1 0 0 -0 -1 -1 -1 -2 -2 -3 -3 -3 -4 -5 -5 -6 -6 -7 -7 -7 -7 -7 -7 -7
4 5 4 4 4 4 4 3 3 3 3 2 2 2 2 1 1 1 1 1 0 -0 -0 -1 -1 -1 -2 -2 -3 -3 -4 -4 -5 -5 -6 -6 -7 -7 -7 -8 -8 -8 -8 -7
3 3 3 3 3 3 3 3 2 2 2 2 2 2 1 1 1 1 0 0 -1 -1 -1 -1 -2 -2 -2 -3 -3 -4 -4 -5 -5 -6 -6 -7 -7 -7 -8 -8 -8 -8 -8 -8
2 2 2 2 2 2 2 2 2 2 2 1 1 1 1 0 0 -0 -0 -1 -1 -1 -1 -2 -2 -3 -3 -3 -4 -4 -5 -5 -6 -6 -7 -7 -7 -8 -8 -8 -8 -8 -8 -8
3 3 3 2 2 2 2 2 1 1 1 1 0 0 -0 -1 -1 -1 -1 -2 -2 -2 -2 -2 -3 -3 -4 -4 -5 -5 -5 -6 -6 -7 -7 -7 -8 -8 -8 -8 -9 -9 -9 -8
2 2 2 2 2 1 1 1 1 1 0 -0 -0 -1 -1 -1 -1 -2 -2 -2 -3 -3 -3 -3 -4 -4 -4 -5 -5 -6 -6 -6 -7 -7 -7 -8 -8 -8 -9 -9 -9 -9 -9 -9
1 1 1 1 1 1 1 0 0 -0 -0 -1 -1 -1 -1 -2 -2 -2 -3 -3 -3 -3 -4 -4 -5 -5 -5 -5 -6 -6 -6 -7 -7 -7 -8 -8 -9 -9 -9 -9 -9 -9 -9 -9
1 1 1 0 0 0 -0 -0 -1 -1 -1 -1 -2 -2 -2 -2 -3 -3 -4 -4 -3 -4 -5 -5 -5 -6 -6 -6 -6 -7 -7 -7 -8 -8 -8 -9 -9 -9 -9 -10 -10 -10 -10 -10
0 0 -0 -0 -0 -1 -1 -1 -1 -2 -2 -2 -2 -2 -3 -3 -3 -4 -4 -5 -5 -5 -6 -6 -6 -6 -6 -7 -7 -7 -8 -8 -8 -8 -9 -9 -9 -10 -10 -10 -10 -10 -10 -10
-0 -1 -1 -1 -1 -1 -1 -1 -2 -2 -2 -2 -3 -3 -4 -4 -5 -5 -5 -5 -6 -6 -6 -7 -7 -7 -7 -7 -8 -8 -8 -9 -9 -9 -9 -10 -10 -10 -10 -10 -10 -11 -11 -10
-1 -1 -1 -2 -2 -2 -2 -2 -2 -2 -3 -3 -3 -4 -4 -5 -5 -6 -6 -6 -6 -7 -7 -7 -7 -8 -8 -8 -8 -9 -9 -9 -9 -10 -10 -10 -10 -10 -11 -11 -11 -11 -11 -10
-2 -2 -2 -2 -2 -2 -2 -3 -3 -3 -3 -4 -4 -5 -5 -6 -6 -6 -7 -7 -7 -7 -8 -8 -8 -8 -9 -9 -9 -10 -10 -10 -10 -10 -10 -11 -11 -11 -11 -11 -11 -11 -11 -10
-2 -2 -2 -3 -3 -3 -3 -4 -4 -4 -5 -5 -6 -6 -7 -7 -7 -7 -8 -8 -8 -9 -9 -9 -9 -9 -10 -10 -10 -10 -10 -11 -11 -11 -11 -11 -11 -11 -11 -11 -11 -11 -11 -10
-2 -3 -3 -3 -3 -4 -4 -5 -5 -6 -6 -7 -7 -7 -8 -8 -8 -9 -9 -9 -9 -10 -10 -10 -10 -10 -11 -11 -11 -11 -11 -11 -11 -11 -12 -12 -12 -12 -12 -11 -11 -11 -11 -10
Wind_Speed
4 1 5 8 10 14 16 16 15 16 18 16 11 10 9 9 8 8 8 7 5 3 2 0 1 2 4 5 5 6 8 9 10 11 12 13 14 15 15 16 16 17 18 18
4 3 5 7 12 15 17 18 20 22 20 10 5 6 8 10 10 9 8 6 4 2 1 1 2 3 5 6 6 7 9 10 11 12 13 13 15 16 16 17 17 18 18 19
6 3 3 10 14 18 13 14 14 18 14 5 6 8 9 10 10 9 7 5 3 2 1 2 3 4 6 7 8 9 10 12 12 12 13 15 16 17 17 18 18 18 18 19
4 4 10 7 1 7 13 15 15 12 5 7 7 7 6 8 9 8 6 4 2 1 1 2 4 5 7 8 9 10 12 12 13 13 14 15 16 17 18 17 18 18 19 20
5 8 11 7 5 7 9 9 10 12 9 8 9 8 5 5 5 5 4 2 1 1 2 4 5 6 8 9 10 11 13 13 14 14 15 16 17 18 18 18 18 18 18 20
6 6 9 5 4 5 3 7 6 9 11 12 12 8 7 8 6 5 3 2 1 2 4 5 6 7 9 11 12 13 14 14 15 15 16 17 18 19 18 17 18 18 19 19
11 11 10 2 6 8 7 4 7 10 12 13 9 3 7 8 5 4 2 2 2 4 5 6 7 8 10 12 13 14 14 15 16 16 17 18 18 17 18 17 18 18 19 18
9 10 10 7 9 9 3 4 8 10 10 9 6 7 6 5 4 3 2 3 3 5 6 7 8 9 12 14 14 14 15 16 17 17 16 15 17 18 17 18 18 18 17 18
10 7 1 7 5 1 4 7 7 8 7 8 7 6 5 4 3 3 3 4 4 6 8 9 9 10 13 15 15 15 16 17 17 17 16 16 17 17 17 15 14 15 15 16
6 6 4 4 4 4 5 6 7 7 7 7 6 6 5 4 3 3 4 5 6 8 10 12 12 12 14 15 14 15 17 17 16 17 17 16 14 14 14 14 15 15 15 16
7 3 3 5 6 7 7 8 9 7 6 6 6 5 4 4 4 4 5 6 7 9 11 13 14 14 15 15 15 16 17 16 16 15 16 16 15 14 15 15 16 17 16 16
6 6 6 6 8 9 9 8 8 7 6 5 5 4 4 4 4 5 7 8 9 11 13 14 15 16 16 15 15 15 15 16 14 14 14 14 15 16 16 18 24 25 25 24
2 3 3 5 7 7 8 8 7 7 6 5 4 4 4 5 6 7 9 10 11 13 14 15 16 17 16 15 14 15 16 16 14 14 14 14 14 15 17 17 20 22 24 25
4 6 5 5 6 7 8 8 7 5 4 4 3 4 4 6 7 9 11 11 12 13 15 16 17 17 17 15 14 15 16 15 14 13 14 14 14 15 15 17 17 16 18 22
5 3 6 7 9 8 7 7 6 4 3 3 3 5 6 7 10 11 12 12 13 14 16 16 17 18 16 15 15 15 14 13 13 13 13 14 14 15 15 17 16 16 16 17
7 7 9 9 9 8 7 6 5 4 3 4 5 6 7 9 11 12 13 13 13 16 16 17 17 17 16 15 14 13 13 16 16 14 14 14 14 14 15 15 15 15 15 15
9 9 8 9 8 6 5 4 4 4 4 6 7 8 9 10 12 14 14 14 14 15 16 17 17 16 15 14 14 12 12 13 16 14 13 13 13 14 14 15 15 15 15 17
6 7 8 8 7 5 4 3 3 4 6 7 8 9 10 12 14 15 15 15 15 16 16 16 15 15 15 14 13 12 12 12 12 13 13 13 14 14 14 15 15 16 15 16
7 7 6 5 4 3 3 3 4 5 7 7 9 11 12 13 14 14 15 15 16 17 15 13 16 16 15 15 14 12 13 13 13 13 13 16 15 14 14 14 15 15 15 15
6 5 4 3 2 2 3 4 5 7 8 8 10 11 13 13 13 14 14 15 13 13 14 16 16 15 14 14 15 12 13 14 14 14 13 13 14 14 14 14 15 15 15 14
4 3 2 1 2 4 5 6 7 9 10 10 11 12 13 14 14 13 13 15 14 13 15 18 14 13 12 14 17 13 13 13 13 13 13 13 14 14 14 14 14 14 14 14
2 1 2 3 5 6 7 7 8 10 11 11 11 12 13 14 14 14 14 13 15 15 14 13 12 15 17 20 14 13 13 13 13 13 13 13 13 14 14 15 14 14 13 13
2 3 5 6 7 8 9 9 9 10 11 11 12 13 14 14 12 13 14 12 12 17 15 14 17 22 25 17 13 13 14 14 13 13 13 13 13 14 14 15 14 14 13 13
4 5 6 6 6 8 10 11 9 9 11 12 12 12 13 13 12 11 12 16 18 20 15 17 23 24 23 14 13 13 13 13 13 13 13 13 13 13 13 13 14 13 13 15
6 6 7 7 8 8 10 10 11 11 12 11 12 13 11 11 12 13 14 16 19 20 16 18 21 22 16 13 13 13 12 13 13 13 13 13 13 13 13 13 13 13 13 13
6 6 7 7 8 8 8 8 9 10 11 12 12 12 11 11 13 13 13 15 18 19 16 14 14 15 13 13 13 13 13 14 14 12 13 13 14 14 13 13 15 13 13 13
6 6 6 7 7 7 8 9 10 11 11 12 14 13 13 13 13 14 15 15 14 14 14 13 13 13 13 13 13 13 13 12 12 12 12 13 13 13 13 14 13 13 12 13
Wind_Direction
250 149 180 207 205 200 213 234 248 258 260 259 241 223 207 191 176 168 161 157 153 149 140 107 334 326 325 320 317 313 309 307 308 309 308 305 304 303 302 300 298 297 295 293
218 199 220 242 237 225 229 241 249 261 267 271 243 203 193 184 173 169 164 159 151 149 163 294 316 317 314 311 311 308 305 305 308 306 305 304 303 303 302 301 299 298 296 294
235 171 228 253 241 229 226 226 236 249 261 199 186 187 183 173 168 167 164 162 165 185 232 296 311 309 308 309 307 305 303 304 304 304 303 303 304 302 302 302 300 299 297 295
208 182 238 255 140 226 233 242 235 243 227 183 177 152 151 161 165 163 160 166 179 212 266 293 298 301 302 302 302 301 301 302 304 304 302 303 303 302 302 302 301 299 298 297
194 237 262 261 214 194 212 249 224 220 199 161 139 137 152 156 158 154 156 163 187 251 280 288 293 299 300 298 300 300 301 304 306 304 302 302 302 303 304 303 300 300 299 298
194 223 246 246 146 161 185 258 197 188 173 160 160 184 179 158 152 150 152 168 226 269 280 284 294 299 296 298 300 301 305 305 304 303 301 301 301 302 302 301 299 300 298 297
221 236 257 221 142 160 211 279 152 170 164 164 176 153 127 143 150 154 166 209 259 276 281 288 296 297 295 299 300 304 304 302 301 300 300 300 300 300 301 300 299 299 298 298
207 225 244 152 160 197 232 115 153 158 159 161 146 123 132 147 156 171 205 242 267 280 288 294 296 296 295 298 302 304 302 300 299 300 300 299 299 300 300 301 301 301 301 302
201 217 62 165 195 189 144 154 155 155 153 150 150 158 159 168 181 205 239 260 273 284 292 296 296 294 294 300 305 304 302 301 301 301 300 299 299 300 301 301 299 301 301 301
220 234 212 209 200 175 166 152 140 140 143 150 157 162 172 186 206 235 255 270 280 286 291 297 301 300 297 300 302 301 300 301 301 301 301 300 298 296 297 298 298 298 299 300
227 218 196 209 195 166 140 129 125 124 133 147 155 170 187 206 230 253 268 277 280 283 289 294 300 301 301 302 303 300 300 300 300 300 299 300 299 296 295 291 289 294 296 298
217 193 191 185 169 160 148 145 143 139 140 149 168 182 203 231 251 266 275 281 283 285 290 295 299 299 301 302 301 299 299 300 300 301 300 299 300 299 289 286 291 292 292 294
150 137 143 134 143 150 151 146 147 151 156 164 178 200 224 251 266 274 278 282 285 290 294 296 298 298 299 301 298 294 294 296 298 298 299 299 300 301 303 302 297 296 296 298
147 136 136 147 147 142 138 136 136 138 152 174 199 225 247 265 275 279 283 287 292 293 294 295 296 296 299 300 297 292 292 293 292 294 296 297 297 298 299 303 306 305 303 303
159 156 141 133 130 129 129 134 141 156 180 213 235 250 262 272 280 286 290 293 294 292 292 295 296 297 301 301 297 294 293 292 293 294 294 294 295 296 297 299 300 303 305 306
132 125 130 136 140 142 145 154 171 196 223 248 263 271 278 282 285 288 290 293 293 294 296 297 295 297 302 300 296 293 291 289 291 294 295 295 296 297 298 299 301 302 304 307
144 146 149 151 153 157 167 181 202 229 252 265 277 287 290 289 289 290 293 296 294 291 292 293 293 297 298 295 294 293 293 293 293 292 292 294 295 296 297 298 300 301 301 303
152 149 154 156 160 169 186 208 232 252 264 277 287 289 287 289 291 294 298 300 297 294 292 293 295 298 295 294 294 293 292 291 292 292 292 293 295 296 297 297 299 300 301 304
127 131 135 142 156 175 206 238 258 271 278 283 285 285 287 287 288 291 295 296 294 295 297 300 301 299 296 295 296 292 290 289 291 292 294 295 297 296 296 296 298 299 301 302
120 124 129 136 157 208 246 267 278 282 283 284 284 285 286 288 291 293 294 291 286 288 294 299 300 297 295 296 296 292 289 289 292 295 296 295 295 296 297 296 297 299 300 301
127 133 148 208 262 268 271 277 280 283 287 285 282 283 287 290 292 292 291 293 294 296 299 299 298 296 297 297 297 292 290 291 293 295 295 294 295 296 296 296 298 299 300 301
158 207 252 268 275 280 282 282 279 281 284 284 283 283 286 290 293 291 284 283 291 297 300 297 296 296 299 300 296 294 293 293 293 294 293 293 294 295 295 297 298 299 300 300
248 260 267 271 275 283 287 284 279 279 280 282 284 286 287 290 292 291 293 293 297 299 300 295 296 299 302 303 297 294 293 293 292 292 292 292 293 293 294 296 297 298 299 299
263 268 272 279 282 281 283 287 286 283 281 282 279 278 281 288 289 285 285 293 298 298 297 296 299 301 304 301 296 294 293 292 291 291 291 292 293 293 293 294 295 296 297 298
269 273 274 276 278 279 283 290 291 288 286 285 286 285 282 280 285 292 294 296 298 300 298 298 300 302 302 296 295 293 292 290 290 291 293 295 295 294 294 294 294 296 297 297
273 276 276 274 274 279 284 286 287 290 292 293 294 294 293 291 290 292 293 296 296 297 298 298 299 300 297 295 294 293 293 294 293 294 294 295 293 294 293 294 295 295 295 294
277 277 278 280 278 275 278 282 286 289 291 292 294 297 297 296 295 295 296 296 297 297 298 298 298 298 297 296 295 295 295 294 293 293 294 294 294 293 294 294 294 294 294 293
Height
1492 1496 1497 1496 1499 1505 1503 1495 1494 1486 1486 1486 1490 1495 1498 1502 1504 1507 1508 1510 1511 1512 1513 1513 1513 1511 1510 1508 1506 1503 1500 1497 1494 1490 1486 1482 1477 1473 1467 1462 1456 1451 1445 1439
1496 1499 1500 1499 1495 1496 1497 1492 1489 1485 1483 1484 1489 1493 1496 1499 1501 1504 1506 1508 1509 1510 1510 1510 1509 1508 1506 1504 1502 1499 1496 1492 1488 1484 1480 1475 1470 1465 1459 1453 1448 1442 1436 1429
1491 1500 1500 1493 1484 1486 1487 1485 1484 1482 1479 1484 1489 1491 1493 1496 1499 1502 1504 1506 1507 1507 1507 1506 1505 1504 1502 1500 1497 1494 1491 1487 1482 1478 1473 1468 1462 1457 1451 1445 1439 1433 1427 1420
1491 1499 1499 1474 1479 1479 1479 1478 1479 1480 1482 1484 1487 1490 1493 1495 1498 1500 1502 1503 1504 1504 1503 1502 1501 1500 1498 1495 1492 1489 1485 1480 1476 1471 1465 1460 1454 1449 1443 1437 1430 1424 1418 1412
1492 1488 1479 1475 1477 1479 1479 1474 1476 1477 1480 1485 1488 1490 1493 1495 1496 1498 1500 1501 1501 1501 1500 1499 1497 1495 1493 1490 1487 1483 1479 1474 1469 1464 1458 1452 1447 1441 1435 1428 1421 1415 1409 1402
1491 1490 1483 1468 1474 1476 1478 1473 1473 1475 1478 1483 1486 1487 1490 1493 1494 1496 1497 1498 1497 1497 1496 1495 1493 1491 1488 1485 1481 1477 1472 1468 1463 1457 1451 1445 1439 1433 1426 1420 1413 1406 1399 1394
1482 1481 1469 1468 1474 1476 1477 1467 1472 1474 1477 1481 1484 1485 1489 1490 1492 1494 1494 1495 1494 1494 1492 1491 1489 1486 1482 1479 1475 1471 1466 1460 1455 1450 1444 1438 1431 1425 1418 1411 1404 1398 1391 1385
1476 1477 1472 1470 1472 1471 1467 1470 1471 1474 1477 1480 1483 1485 1487 1489 1490 1491 1491 1491 1491 1490 1488 1486 1484 1481 1477 1473 1469 1464 1459 1453 1448 1442 1436 1430 1423 1417 1410 1404 1396 1389 1383 1377
1464 1463 1464 1466 1467 1467 1468 1469 1471 1473 1477 1479 1481 1483 1485 1487 1487 1488 1488 1488 1487 1486 1484 1482 1479 1475 1471 1466 1462 1456 1451 1446 1440 1434 1428 1422 1416 1409 1402 1396 1390 1383 1376 1369
1463 1461 1464 1465 1465 1466 1467 1468 1470 1473 1476 1478 1480 1482 1483 1484 1485 1485 1485 1484 1483 1481 1478 1476 1473 1469 1465 1459 1454 1449 1443 1438 1432 1426 1420 1414 1408 1401 1395 1389 1383 1377 1370 1364
1459 1460 1462 1462 1463 1464 1466 1468 1470 1473 1475 1477 1478 1480 1481 1481 1482 1482 1481 1480 1478 1476 1473 1469 1466 1462 1458 1453 1447 1441 1436 1430 1424 1418 1412 1405 1400 1394 1388 1382 1377 1371 1364 1358
1452 1454 1457 1458 1460 1462 1465 1467 1469 1471 1473 1475 1476 1477 1478 1478 1478 1478 1477 1475 1473 1470 1467 1463 1459 1455 1450 1446 1440 1434 1428 1422 1416 1410 1404 1397 1391 1384 1379 1374 1369 1363 1358 1352
1451 1452 1454 1456 1458 1461 1463 1466 1468 1470 1471 1473 1474 1475 1475 1475 1475 1474 1472 1470 1467 1463 1460 1456 1451 1447 1442 1438 1432 1426 1421 1415 1409 1402 1396 1390 1384 1377 1369 1364 1360 1355 1349 1344
1449 1451 1453 1455 1457 1460 1462 1464 1466 1468 1470 1471 1472 1472 1472 1471 1470 1468 1466 1464 1460 1456 1452 1448 1443 1439 1434 1429 1424 1418 1413 1407 1401 1395 1389 1383 1377 1371 1364 1357 1350 1344 1340 1335
1448 1450 1452 1454 1456 1459 1461 1463 1465 1466 1468 1469 1469 1469 1468 1467 1465 1462 1460 1457 1453 1449 1444 1440 1435 1430 1426 1421 1415 1410 1405 1399 1394 1388 1382 1376 1370 1364 1358 1352 1345 1338 1332 1327
1447 1449 1451 1453 1455 1458 1460 1462 1463 1464 1465 1465 1465 1464 1463 1461 1458 1456 1453 1449 1445 1440 1436 1431 1426 1422 1417 1412 1407 1401 1396 1391 1386 1380 1375 1369 1364 1358 1352 1346 1339 1333 1327 1321
1445 1448 1450 1452 1455 1457 1458 1460 1461 1462 1462 1462 1461 1459 1457 1455 1452 1448 1445 1442 1437 1432 1428 1423 1417 1413 1409 1404 1399 1393 1388 1383 1378 1373 1368 1362 1357 1351 1345 1340 1333 1327 1321 1316
1445 1447 1449 1451 1453 1455 1457 1458 1458 1459 1458 1457 1456 1453 1451 1448 1444 1440 1437 1433 1428 1423 1419 1415 1410 1405 1400 1396 1391 1386 1381 1375 1371 1366 1360 1355 1350 1344 1339 1333 1327 1321 1314 1309
1444 1447 1449 1451 1452 1454 1455 1455 1455 1454 1453 1451 1449 1447 1444 1440 1437 1433 1429 1424 1419 1414 1410 1406 1401 1397 1392 1388 1383 1378 1373 1368 1363 1358 1353 1348 1342 1337 1332 1326 1320 1315 1309 1303
1445 1447 1448 1450 1451 1452 1452 1451 1451 1449 1448 1445 1442 1439 1436 1433 1429 1425 1420 1415 1411 1407 1401 1397 1392 1388 1384 1380 1375 1370 1366 1361 1356 1351 1346 1340 1335 1330 1325 1319 1314 1308 1303 1298
1445 1446 1447 1448 1449 1448 1448 1447 1445 1443 1441 1439 1436 1432 1428 1424 1421 1416 1411 1406 1402 1399 1394 1389 1385 1380 1376 1372 1367 1363 1358 1353 1348 1343 1338 1333 1328 1322 1317 1312 1307 1302 1297 1292
1444 1445 1445 1445 1445 1444 1443 1441 1439 1437 1434 1431 1428 1425 1420 1416 1412 1408 1403 1399 1394 1390 1386 1381 1377 1373 1369 1364 1359 1355 1350 1346 1341 1336 1331 1325 1320 1315 1310 1305 1301 1295 1290 1285
1442 1442 1442 1441 1440 1439 1437 1435 1433 1430 1427 1424 1420 1417 1413 1408 1404 1399 1394 1390 1387 1382 1378 1373 1369 1365 1360 1356 1351 1346 1342 1337 1332 1328 1323 1318 1313 1308 1303 1298 1294 1289 1284 1279
1439 1438 1437 1436 1435 1433 1430 1428 1426 1423 1419 1416 1412 1409 1405 1400 1395 1391 1387 1382 1378 1373 1369 1364 1360 1355 1351 1346 1342 1337 1333 1328 1324 1319 1315 1310 1306 1301 1296 1291 1286 1282 1277 1273
1434 1433 1432 1431 1429 1426 1423 1420 1417 1414 1411 1407 1403 1400 1396 1392 1387 1382 1378 1373 1368 1364 1359 1354 1350 1346 1342 1337 1333 1328 1324 1320 1316 1312 1307 1303 1298 1293 1289 1284 1280 1275 1271 1267
1429 1428 1426 1425 1422 1420 1417 1413 1409 1406 1402 1398 1394 1391 1387 1383 1378 1373 1369 1364 1359 1354 1350 1345 1341 1337 1332 1328 1324 1320 1316 1312 1307 1303 1299 1295 1290 1286 1281 1277 1273 1269 1265 1261
1424 1422 1420 1418 1415 1413 1409 1406 1402 1398 1394 1390 1385 1381 1378 1374 1369 1364 1360 1355 1350 1345 1341 1337 1332 1328 1324 1320 1316 1312 1308 1304 1300 1295 1291 1287 1282 1278 1274 1270 1266 1262 1258 1254